• In Hungary
  • List of Countries
  • For 7 days
  • Water Temperature
  • Satellite Maps
  • Weather Map
  • News
  • Weather Widgets
  • user-avatar
    Login

    Hourly Weather Armawir

    Today, 18 January, Thursday

    Time Temperature Precipitation Wind Pressure Humidity
    00:00 -2°C° 0.1 mm 2 mps 683 mmHg 78%
    01:00 -2°C° 0.3 mm 2 mps 683 mmHg 79%
    02:00 -2°C° 0.3 mm 2 mps 683 mmHg 80%
    03:00 -1°C° 0 mm 2 mps 682 mmHg 85%
    04:00 -1°C° 0.4 mm 2 mps 682 mmHg 86%
    05:00 -1°C° 0.4 mm 2 mps 682 mmHg 86%
    06:00 -1°C° 0.4 mm 2 mps 681 mmHg 87%
    07:00 -1°C° 0.4 mm 3 mps 681 mmHg 86%
    08:00 0°C° 0.4 mm 3 mps 681 mmHg 86%
    09:00 0°C° 0 mm 3 mps 681 mmHg 85%
    10:00 0°C° 0.7 mm 4 mps 680 mmHg 84%
    11:00 0°C° 0.7 mm 4 mps 680 mmHg 83%
    12:00 +1°C° 0.7 mm 4 mps 679 mmHg 83%
    13:00 +1°C° 0.4 mm 4 mps 679 mmHg 81%
    14:00 +2°C° 0.4 mm 5 mps 679 mmHg 79%
    15:00 +2°C° 0.4 mm 5 mps 678 mmHg 77%
    16:00 +2°C° 0.2 mm 5 mps 678 mmHg 78%
    17:00 +1°C° 0.2 mm 4 mps 678 mmHg 79%
    18:00 0°C° 0.2 mm 4 mps 678 mmHg 79%
    19:00 +1°C° 0.1 mm 3 mps 678 mmHg 79%
    20:00 +1°C° 0.1 mm 3 mps 678 mmHg 78%
    21:00 +1°C° 0.1 mm 3 mps 678 mmHg 78%
    22:00 +1°C° 0 mm 3 mps 678 mmHg 78%
    23:00 0°C° 0 mm 3 mps 678 mmHg 78%

    Tomorrow, 19 January, Friday

    Time Temperature Precipitation Wind Pressure Humidity
    00:00 0°C° 0 mm 3 mps 678 mmHg 77%
    01:00 0°C° 0 mm 3 mps 678 mmHg 77%
    02:00 +1°C° 0 mm 2 mps 678 mmHg 77%
    03:00 +1°C° 0 mm 2 mps 678 mmHg 77%
    04:00 +1°C° 0.1 mm 2 mps 678 mmHg 77%
    05:00 +1°C° 0.1 mm 2 mps 678 mmHg 78%
    06:00 +1°C° 0.1 mm 2 mps 679 mmHg 78%
    07:00 +1°C° 0 mm 2 mps 679 mmHg 77%
    08:00 +2°C° 0 mm 2 mps 679 mmHg 76%
    09:00 +3°C° 0 mm 2 mps 680 mmHg 76%
    10:00 +4°C° 0 mm 2 mps 679 mmHg 75%
    11:00 +5°C° 0 mm 2 mps 679 mmHg 74%
    12:00 +6°C° 0 mm 2 mps 679 mmHg 72%
    13:00 +6°C° 0 mm 2 mps 679 mmHg 72%
    14:00 +6°C° 0 mm 2 mps 679 mmHg 71%
    15:00 +7°C° 0 mm 2 mps 679 mmHg 71%
    16:00 +6°C° 0 mm 2 mps 680 mmHg 72%
    17:00 +6°C° 0 mm 1 mps 680 mmHg 74%
    18:00 +5°C° 0 mm 1 mps 681 mmHg 75%
    19:00 +3°C° 0 mm 2 mps 681 mmHg 75%
    20:00 +3°C° 0 mm 2 mps 681 mmHg 75%
    21:00 +3°C° 0 mm 2 mps 681 mmHg 74%
    22:00 +3°C° 0 mm 2 mps 682 mmHg 74%
    23:00 +3°C° 0 mm 2 mps 682 mmHg 74%

    Day after tomorrow, 20 January, Saturday

    Time Temperature Precipitation Wind Pressure Humidity
    00:00 +2°C° 0 mm 2 mps 682 mmHg 74%
    01:00 +2°C° 0 mm 2 mps 683 mmHg 75%
    02:00 +2°C° 0 mm 2 mps 683 mmHg 75%
    03:00 +1°C° 0 mm 3 mps 684 mmHg 75%
    04:00 +1°C° 0.1 mm 3 mps 684 mmHg 76%
    05:00 0°C° 0.1 mm 3 mps 684 mmHg 76%
    06:00 0°C° 0.1 mm 3 mps 685 mmHg 76%
    07:00 +1°C° 0 mm 3 mps 685 mmHg 74%
    08:00 +1°C° 0 mm 3 mps 686 mmHg 73%
    09:00 +2°C° 0 mm 2 mps 686 mmHg 71%
    10:00 +4°C° 0 mm 2 mps 687 mmHg 69%
    11:00 +5°C° 0 mm 2 mps 687 mmHg 67%
    12:00 +6°C° 0 mm 2 mps 687 mmHg 65%
    13:00 +7°C° 0 mm 1 mps 687 mmHg 65%
    14:00 +7°C° 0 mm 1 mps 686 mmHg 65%
    15:00 +7°C° 0 mm 1 mps 686 mmHg 65%
    16:00 +6°C° 0 mm 1 mps 687 mmHg 66%
    17:00 +4°C° 0 mm 1 mps 687 mmHg 67%
    18:00 +3°C° 0 mm 1 mps 688 mmHg 68%
    19:00 +1°C° 0 mm 2 mps 688 mmHg 67%
    20:00 +1°C° 0 mm 2 mps 689 mmHg 66%
    21:00 +1°C° 0 mm 2 mps 689 mmHg 65%
    22:00 -1°C° 0 mm 2 mps 689 mmHg 65%
    23:00 -1°C° 0 mm 2 mps 689 mmHg 65%

    21 January, Sunday

    Time Temperature Precipitation Wind Pressure Humidity
    00:00 -1°C° 0 mm 2 mps 690 mmHg 64%
    01:00 -1°C° 0 mm 2 mps 690 mmHg 64%
    02:00 -1°C° 0 mm 2 mps 690 mmHg 64%
    03:00 -2°C° 0 mm 2 mps 690 mmHg 65%
    04:00 -2°C° 0 mm 2 mps 690 mmHg 64%
    05:00 -2°C° 0 mm 2 mps 690 mmHg 64%
    06:00 -2°C° 0 mm 2 mps 690 mmHg 64%
    07:00 -1°C° 0 mm 2 mps 690 mmHg 63%
    08:00 +1°C° 0 mm 2 mps 690 mmHg 62%
    09:00 +2°C° 0 mm 1 mps 691 mmHg 60%
    10:00 +3°C° 0 mm 2 mps 690 mmHg 59%
    11:00 +4°C° 0 mm 2 mps 690 mmHg 59%
    12:00 +5°C° 0 mm 2 mps 689 mmHg 58%
    13:00 +6°C° 0 mm 2 mps 689 mmHg 58%
    14:00 +6°C° 0 mm 2 mps 689 mmHg 57%
    15:00 +7°C° 0 mm 1 mps 688 mmHg 57%
    16:00 +6°C° 0 mm 1 mps 688 mmHg 57%
    17:00 +4°C° 0 mm 2 mps 688 mmHg 57%
    18:00 +2°C° 0 mm 2 mps 689 mmHg 57%
    19:00 +2°C° 0 mm 2 mps 689 mmHg 56%
    20:00 +2°C° 0 mm 2 mps 689 mmHg 56%
    21:00 +2°C° 0 mm 2 mps 689 mmHg 55%
    22:00 +1°C° 0 mm 2 mps 688 mmHg 55%
    23:00 +2°C° 0 mm 1 mps 688 mmHg 54%

    22 January, Monday

    Time Temperature Precipitation Wind Pressure Humidity
    00:00 +2°C° 0 mm 1 mps 688 mmHg 54%
    01:00 +2°C° 0 mm 1 mps 687 mmHg 53%
    02:00 +3°C° 0 mm 1 mps 687 mmHg 53%
    03:00 +2°C° 0 mm 2 mps 687 mmHg 52%
    04:00 +2°C° 0 mm 2 mps 686 mmHg 52%
    05:00 +2°C° 0 mm 2 mps 686 mmHg 52%
    06:00 +2°C° 0 mm 2 mps 686 mmHg 52%
    07:00 +3°C° 0 mm 2 mps 686 mmHg 52%
    08:00 +3°C° 0 mm 2 mps 686 mmHg 52%
    09:00 +4°C° 0 mm 2 mps 685 mmHg 52%
    10:00 +5°C° 0 mm 2 mps 685 mmHg 52%
    11:00 +6°C° 0 mm 2 mps 685 mmHg 51%
    12:00 +7°C° 0 mm 2 mps 684 mmHg 51%
    13:00 +8°C° 0 mm 2 mps 684 mmHg 51%
    14:00 +8°C° 0 mm 2 mps 683 mmHg 50%
    15:00 +8°C° 0 mm 2 mps 683 mmHg 49%
    16:00 +6°C° 0 mm 2 mps 683 mmHg 48%
    17:00 +5°C° 0 mm 2 mps 683 mmHg 48%
    18:00 +3°C° 0 mm 2 mps 683 mmHg 47%
    19:00 +3°C° 0 mm 2 mps 684 mmHg 48%
    20:00 +2°C° 0 mm 2 mps 684 mmHg 48%
    21:00 +2°C° 0 mm 2 mps 684 mmHg 49%
    22:00 +2°C° 0 mm 2 mps 684 mmHg 50%
    23:00 +2°C° 0 mm 2 mps 684 mmHg 51%

    23 January, Tuesday

    Time Temperature Precipitation Wind Pressure Humidity
    00:00 +1°C° 0 mm 2 mps 684 mmHg 52%
    01:00 +1°C° 0 mm 2 mps 684 mmHg 53%
    02:00 +1°C° 0 mm 2 mps 684 mmHg 54%
    03:00 +1°C° 0 mm 2 mps 684 mmHg 54%
    04:00 +1°C° 0 mm 2 mps 684 mmHg 55%
    05:00 -1°C° 0 mm 2 mps 683 mmHg 55%
    06:00 -1°C° 0 mm 2 mps 683 mmHg 56%
    07:00 +1°C° 0 mm 2 mps 684 mmHg 56%
    08:00 +3°C° 0 mm 1 mps 684 mmHg 56%
    09:00 +3°C° 0 mm 1 mps 684 mmHg 56%
    10:00 +4°C° 0 mm 2 mps 683 mmHg 55%
    11:00 +5°C° 0 mm 2 mps 683 mmHg 53%
    12:00 +6°C° 0 mm 2 mps 683 mmHg 52%
    13:00 +6°C° 0 mm 2 mps 683 mmHg 52%
    14:00 +7°C° 0 mm 2 mps 682 mmHg 53%
    15:00 +7°C° 0 mm 2 mps 682 mmHg 53%
    16:00 +6°C° 0 mm 2 mps 682 mmHg 54%
    17:00 +5°C° 0 mm 2 mps 682 mmHg 55%
    18:00 +5°C° 0 mm 1 mps 683 mmHg 55%
    19:00 +5°C° 0.1 mm 1 mps 683 mmHg 56%
    20:00 +5°C° 0.1 mm 1 mps 683 mmHg 57%
    21:00 +5°C° 0.1 mm 1 mps 683 mmHg 58%
    22:00 +4°C° 0.1 mm 1 mps 683 mmHg 59%
    23:00 +4°C° 0.1 mm 1 mps 683 mmHg 60%
    Show more